Location: Chacón
(10.5789°N, 66.9317°W)
Time: 21:15:28
(UTC+00:00)

Sakura Rocket - Pass Details

Date: 10 August 2024
Orbit: 475 x 1710 km, 28.7° (Epoch: 09 September)

Event Time Altitude Azimuth Distance (km) Brightness Sun altitude
Rises 23:41:03 0° 210° (SSW) 2,772 6.6 -13.3°
Reaches altitude 10° 23:44:23 10° 184° (S) 1,731 5.2 -14.0°
Enters shadow 23:46:02 14° 159° (SSE) 1,464 4.6 -14.4°
